Погода в Зенджане

Иран     36°40′52″N   48°29′31″E
темп.,
°C
ветер,
м/с
пор.,
м/с
влажн.,
%
обл.,
%
осадки,
мм/ч
давл.,
гПа
погр.,
м
7 мая, пт
пт701:30+13вюв2253100 0.0 101268
04:30+13вюв345098 0.0 1011102
07:30+13вюв454452 0.0 1011162
10:30+18ююв573126 0.0 10102025
13:30+20юз101126100 0.1 10092955
16:30+17з3839100 0.4 10091286
19:30+13с456947 2.5 1013415
22:30+10всв338045 4.1 1016155
8 мая, сб
сб801:30+9всв117943 0.7 1017129
04:30+9ссв22764 0.8 1016170
07:30+8всв328132 0.0 1018203
10:30+12св216214 0.0 1018624
13:30+16с234825 0.4 10151319
16:30+18ссз443924 0.6 10131817
19:30+15св44562 0.1 1014766
22:30+11всв33760 0.1 1017168
9 мая, вс
вс901:30+11в22690 0.0 101697
04:30+10ююв01660 0.0 101555
07:30+12юз11590 0.0 1016114
10:30+17з23360 0.0 1014933
13:30+20зсз24255 0.0 10111889
16:30+23сз35205 0.0 10082900
19:30+21ссв242616 0.0 1008962
22:30+18зюз24302 0.0 1009364
10 мая, пн
пн1001:30+16з11405 0.1 101073
04:30+14юз11444 0.1 101127
07:30+15вюв34474 0.0 1013132
10:30+20юз69272 0.0 10112285
13:30+24з10111799 0.0 10094468
16:30+24з891899 0.1 10073736
19:30+14всв445296 0.2 1013279
22:30+10в57714 0.4 1016162
11 мая, вт
вт1101:30+12вюв57632 0.0 1015145
04:30+11вюв46620 0.1 1014135
07:30+12вюв465968 0.1 1015203
10:30+19ю5731100 0.1 10131305
13:30+21зюз81126100 0.0 10112655
16:30+18зсз483982 0.3 10131382
19:30+19ссз25350 0.0 1011390
22:30+13вюв576827 0.1 1017223